Year,Month,Day,Hour,Minute,Value (Times are PST for temperature in C)
2017,01,10,00,00,2.40
2017,01,10,00,01,2.40
2017,01,10,00,02,2.40
2017,01,10,00,03,2.40
2017,01,10,00,04,2.40
2017,01,10,00,05,2.40
2017,01,10,00,06,2.40
2017,01,10,00,07,2.40
2017,01,10,00,08,2.40
2017,01,10,00,09,2.40
2017,01,10,00,10,2.40
2017,01,10,00,11,2.40
2017,01,10,00,12,2.40
2017,01,10,00,13,2.40
2017,01,10,00,14,2.40
2017,01,10,00,15,2.40
2017,01,10,00,16,2.40
2017,01,10,00,17,2.40
2017,01,10,00,18,2.40
2017,01,10,00,19,2.40
2017,01,10,00,20,2.50
2017,01,10,00,21,2.50
2017,01,10,00,22,2.50
2017,01,10,00,23,2.50
2017,01,10,00,24,2.50
2017,01,10,00,25,2.50
2017,01,10,00,26,2.50
2017,01,10,00,27,2.50
2017,01,10,00,28,2.50
2017,01,10,00,29,2.50
2017,01,10,00,30,2.50
2017,01,10,00,31,2.60
2017,01,10,00,32,2.60
2017,01,10,00,33,2.60
2017,01,10,00,34,2.60
2017,01,10,00,35,2.60
2017,01,10,00,36,2.60
2017,01,10,00,37,2.60
2017,01,10,00,38,2.60
2017,01,10,00,39,2.70
2017,01,10,00,40,2.70
2017,01,10,00,41,2.70
2017,01,10,00,42,2.70
2017,01,10,00,43,2.70
2017,01,10,00,44,2.70
2017,01,10,00,45,2.70
2017,01,10,00,46,2.80
2017,01,10,00,47,2.80
2017,01,10,00,48,2.80
2017,01,10,00,49,2.80
2017,01,10,00,50,2.80
2017,01,10,00,51,2.80
2017,01,10,00,52,2.80
2017,01,10,00,53,2.70
2017,01,10,00,54,2.70
2017,01,10,00,55,2.70
2017,01,10,00,56,2.70
2017,01,10,00,57,2.70
2017,01,10,00,58,2.70
2017,01,10,00,59,2.70
2017,01,10,01,00,2.70
2017,01,10,01,01,2.70
2017,01,10,01,02,2.70
2017,01,10,01,03,2.70
2017,01,10,01,04,2.70
2017,01,10,01,05,2.70
2017,01,10,01,06,2.70
2017,01,10,01,07,2.70
2017,01,10,01,08,2.70
2017,01,10,01,09,2.70
2017,01,10,01,10,2.70
2017,01,10,01,11,2.70
2017,01,10,01,12,2.70
2017,01,10,01,13,2.70
2017,01,10,01,14,2.70
2017,01,10,01,15,2.70
2017,01,10,01,16,2.70
2017,01,10,01,17,2.70
2017,01,10,01,18,2.70
2017,01,10,01,19,2.70
2017,01,10,01,20,2.70
2017,01,10,01,21,2.70
2017,01,10,01,22,2.70
2017,01,10,01,23,2.70
2017,01,10,01,24,2.70
2017,01,10,01,25,2.70
2017,01,10,01,26,2.70
2017,01,10,01,27,2.70
2017,01,10,01,28,2.70
2017,01,10,01,29,2.70
2017,01,10,01,30,2.70
2017,01,10,01,31,2.70
2017,01,10,01,32,2.70
2017,01,10,01,33,2.70
2017,01,10,01,34,2.70
2017,01,10,01,35,2.60
2017,01,10,01,36,2.60
2017,01,10,01,37,2.60
2017,01,10,01,38,2.60
2017,01,10,01,39,2.60
2017,01,10,01,40,2.60
2017,01,10,01,41,2.60
2017,01,10,01,42,2.60
2017,01,10,01,43,2.60
2017,01,10,01,44,2.60
2017,01,10,01,45,2.60
2017,01,10,01,46,2.60
2017,01,10,01,47,2.60
2017,01,10,01,48,2.60
2017,01,10,01,49,2.60
2017,01,10,01,50,2.60
2017,01,10,01,51,2.60
2017,01,10,01,52,2.60
2017,01,10,01,53,2.60
2017,01,10,01,54,2.60
2017,01,10,01,55,2.60
2017,01,10,01,56,2.60
2017,01,10,01,57,2.60
2017,01,10,01,58,2.60
2017,01,10,01,59,2.60
2017,01,10,02,00,2.60
2017,01,10,02,01,2.60
2017,01,10,02,02,2.60
2017,01,10,02,03,2.70
2017,01,10,02,04,2.60
2017,01,10,02,05,2.60
2017,01,10,02,06,2.60
2017,01,10,02,07,2.60
2017,01,10,02,08,2.60
2017,01,10,02,09,2.70
2017,01,10,02,10,2.70
2017,01,10,02,11,2.70
2017,01,10,02,12,2.60
2017,01,10,02,13,2.70
2017,01,10,02,14,2.70
2017,01,10,02,15,2.70
2017,01,10,02,16,2.60
2017,01,10,02,17,2.60
2017,01,10,02,18,2.60
2017,01,10,02,19,2.60
2017,01,10,02,20,2.60
2017,01,10,02,21,2.60
2017,01,10,02,22,2.60
2017,01,10,02,23,2.60
2017,01,10,02,24,2.50
2017,01,10,02,25,2.60
2017,01,10,02,26,2.50
2017,01,10,02,27,2.50
2017,01,10,02,28,2.50
2017,01,10,02,29,2.50
2017,01,10,02,30,2.50
2017,01,10,02,31,2.50
2017,01,10,02,32,2.50
2017,01,10,02,33,2.50
2017,01,10,02,34,2.50
2017,01,10,02,35,2.50
2017,01,10,02,36,2.50
2017,01,10,02,37,2.40
2017,01,10,02,38,2.40
2017,01,10,02,39,2.40
2017,01,10,02,40,2.40
2017,01,10,02,41,2.40
2017,01,10,02,42,2.40
2017,01,10,02,43,2.40
2017,01,10,02,44,2.40
2017,01,10,02,45,2.40
2017,01,10,02,46,2.40
2017,01,10,02,47,2.40
2017,01,10,02,48,2.40
2017,01,10,02,49,2.40
2017,01,10,02,50,2.40
2017,01,10,02,51,2.40
2017,01,10,02,52,2.40
2017,01,10,02,53,2.40
2017,01,10,02,54,2.40
2017,01,10,02,55,2.40
2017,01,10,02,56,2.40
2017,01,10,02,57,2.40
2017,01,10,02,58,2.40
2017,01,10,02,59,2.40
2017,01,10,03,00,2.40
2017,01,10,03,01,2.40
2017,01,10,03,02,2.40
2017,01,10,03,03,2.50
2017,01,10,03,04,2.50
2017,01,10,03,05,2.40
2017,01,10,03,06,2.50
2017,01,10,03,07,2.40
2017,01,10,03,08,2.40
2017,01,10,03,09,2.40
2017,01,10,03,10,2.40
2017,01,10,03,11,2.40
2017,01,10,03,12,2.40
2017,01,10,03,13,2.40
2017,01,10,03,14,2.40
2017,01,10,03,15,2.40
2017,01,10,03,16,2.40
2017,01,10,03,17,2.40
2017,01,10,03,18,2.40
2017,01,10,03,19,2.40
2017,01,10,03,20,2.40
2017,01,10,03,21,2.40
2017,01,10,03,22,2.40
2017,01,10,03,23,2.40
2017,01,10,03,24,2.40
2017,01,10,03,25,2.40
2017,01,10,03,26,2.30
2017,01,10,03,27,2.30
2017,01,10,03,28,2.30
2017,01,10,03,29,2.30
2017,01,10,03,30,2.30
2017,01,10,03,31,2.30
2017,01,10,03,32,2.30
2017,01,10,03,33,2.30
2017,01,10,03,34,2.30
2017,01,10,03,35,2.30
2017,01,10,03,36,2.30
2017,01,10,03,37,2.30
2017,01,10,03,38,2.30
2017,01,10,03,39,2.20
2017,01,10,03,40,2.20
2017,01,10,03,41,2.20
2017,01,10,03,42,2.20
2017,01,10,03,43,2.20
2017,01,10,03,44,2.20
2017,01,10,03,45,2.20
2017,01,10,03,46,2.20
2017,01,10,03,47,2.20
2017,01,10,03,48,2.20
2017,01,10,03,49,2.20
2017,01,10,03,50,2.20
2017,01,10,03,51,2.20
2017,01,10,03,52,2.20
2017,01,10,03,53,2.20
2017,01,10,03,54,2.20
2017,01,10,03,55,2.20
2017,01,10,03,56,2.20
2017,01,10,03,57,2.20
2017,01,10,03,58,2.20
2017,01,10,03,59,2.20
2017,01,10,04,00,2.20
2017,01,10,04,01,2.20
2017,01,10,04,02,2.20
2017,01,10,04,03,2.20
2017,01,10,04,04,2.20
2017,01,10,04,05,2.20
2017,01,10,04,06,2.20
2017,01,10,04,07,2.20
2017,01,10,04,08,2.20
2017,01,10,04,09,2.20
2017,01,10,04,10,2.20
2017,01,10,04,11,2.20
2017,01,10,04,12,2.20
2017,01,10,04,13,2.20
2017,01,10,04,14,2.20
2017,01,10,04,15,2.20
2017,01,10,04,16,2.20
2017,01,10,04,17,2.20
2017,01,10,04,18,2.20
2017,01,10,04,19,2.20
2017,01,10,04,20,2.20
2017,01,10,04,21,2.20
2017,01,10,04,22,2.20
2017,01,10,04,23,2.20
2017,01,10,04,24,2.20
2017,01,10,04,25,2.20
2017,01,10,04,26,2.10
2017,01,10,04,27,2.10
2017,01,10,04,28,2.10
2017,01,10,04,29,2.10
2017,01,10,04,30,2.10
2017,01,10,04,31,2.10
2017,01,10,04,32,2.10
2017,01,10,04,33,2.10
2017,01,10,04,34,2.10
2017,01,10,04,35,2.10
2017,01,10,04,36,2.10
2017,01,10,04,37,2.10
2017,01,10,04,38,2.00
2017,01,10,04,39,2.00
2017,01,10,04,40,2.00
2017,01,10,04,41,1.90
2017,01,10,04,42,1.90
2017,01,10,04,43,1.90
2017,01,10,04,44,1.90
2017,01,10,04,45,1.80
2017,01,10,04,46,1.80
2017,01,10,04,47,1.80
2017,01,10,04,48,1.80
2017,01,10,04,49,1.80
2017,01,10,04,50,1.80
2017,01,10,04,51,1.70
2017,01,10,04,52,1.70
2017,01,10,04,53,1.70
2017,01,10,04,54,1.70
2017,01,10,04,55,1.70
2017,01,10,04,56,1.60
2017,01,10,04,57,1.60
2017,01,10,04,58,1.60
2017,01,10,04,59,1.60
2017,01,10,05,00,1.60
2017,01,10,05,01,1.50
2017,01,10,05,02,1.50
2017,01,10,05,03,1.40
2017,01,10,05,04,1.40
2017,01,10,05,05,1.40
2017,01,10,05,06,1.40
2017,01,10,05,07,1.30
2017,01,10,05,08,1.30
2017,01,10,05,09,1.30
2017,01,10,05,10,1.30
2017,01,10,05,11,1.30
2017,01,10,05,12,1.30
2017,01,10,05,13,1.30
2017,01,10,05,14,1.30
2017,01,10,05,15,1.20
2017,01,10,05,16,1.20
2017,01,10,05,17,1.20
2017,01,10,05,18,1.20
2017,01,10,05,19,1.20
2017,01,10,05,20,1.20
2017,01,10,05,21,1.20
2017,01,10,05,22,1.20
2017,01,10,05,23,1.20
2017,01,10,05,24,1.20
2017,01,10,05,25,1.20
2017,01,10,05,26,1.20
2017,01,10,05,27,1.20
2017,01,10,05,28,1.20
2017,01,10,05,29,1.20
2017,01,10,05,30,1.20
2017,01,10,05,31,1.20
2017,01,10,05,32,1.20
2017,01,10,05,33,1.20
2017,01,10,05,34,1.20
2017,01,10,05,35,1.20
2017,01,10,05,36,1.20
2017,01,10,05,37,1.20
2017,01,10,05,38,1.20
2017,01,10,05,39,1.20
2017,01,10,05,40,1.20
2017,01,10,05,41,1.20
2017,01,10,05,42,1.20
2017,01,10,05,43,1.20
2017,01,10,05,44,1.20
2017,01,10,05,45,1.20
2017,01,10,05,46,1.20
2017,01,10,05,47,1.20
2017,01,10,05,48,1.20
2017,01,10,05,49,1.20
2017,01,10,05,50,1.20
2017,01,10,05,51,1.20
2017,01,10,05,52,1.20
2017,01,10,05,53,1.20
2017,01,10,05,54,1.20
2017,01,10,05,55,1.20
2017,01,10,05,56,1.20
2017,01,10,05,57,1.20
2017,01,10,05,58,1.20
2017,01,10,05,59,1.20
2017,01,10,06,00,1.20
2017,01,10,06,01,1.20
2017,01,10,06,02,1.20
2017,01,10,06,03,1.20
2017,01,10,06,04,1.20
2017,01,10,06,05,1.20
2017,01,10,06,06,1.20
2017,01,10,06,07,1.20
2017,01,10,06,08,1.20
2017,01,10,06,09,1.20
2017,01,10,06,10,1.20
2017,01,10,06,11,1.20
2017,01,10,06,12,1.20
2017,01,10,06,13,1.20
2017,01,10,06,14,1.20
2017,01,10,06,15,1.20
2017,01,10,06,16,1.20
2017,01,10,06,17,1.20
2017,01,10,06,18,1.20
2017,01,10,06,19,1.20
2017,01,10,06,20,1.20
2017,01,10,06,21,1.20
2017,01,10,06,22,1.20
2017,01,10,06,23,1.20
2017,01,10,06,24,1.20
2017,01,10,06,25,1.20
2017,01,10,06,26,1.20
2017,01,10,06,27,1.20
2017,01,10,06,28,1.20
2017,01,10,06,29,1.20
2017,01,10,06,30,1.20
2017,01,10,06,31,1.20
2017,01,10,06,32,1.20
2017,01,10,06,33,1.20
2017,01,10,06,34,1.20
2017,01,10,06,35,1.20
2017,01,10,06,36,1.20
2017,01,10,06,37,1.20
2017,01,10,06,38,1.20
2017,01,10,06,39,1.20
2017,01,10,06,40,1.20
2017,01,10,06,41,1.10
2017,01,10,06,42,1.10
2017,01,10,06,43,1.10
2017,01,10,06,44,1.10
2017,01,10,06,45,1.10
2017,01,10,06,46,1.10
2017,01,10,06,47,1.10
2017,01,10,06,48,1.10
2017,01,10,06,49,1.10
2017,01,10,06,50,1.10
2017,01,10,06,51,1.10
2017,01,10,06,52,1.10
2017,01,10,06,53,1.10
2017,01,10,06,54,1.10
2017,01,10,06,55,1.10
2017,01,10,06,56,1.10
2017,01,10,06,57,1.10
2017,01,10,06,58,1.10
2017,01,10,06,59,1.10
2017,01,10,07,00,1.10
2017,01,10,07,01,1.10
2017,01,10,07,02,1.10
2017,01,10,07,03,1.10
2017,01,10,07,04,1.10
2017,01,10,07,05,1.10
2017,01,10,07,06,1.10
2017,01,10,07,07,1.10
2017,01,10,07,08,1.00
2017,01,10,07,09,1.00
2017,01,10,07,10,1.00
2017,01,10,07,11,1.00
2017,01,10,07,12,1.00
2017,01,10,07,13,1.00
2017,01,10,07,14,1.00
2017,01,10,07,15,1.00
2017,01,10,07,16,1.00
2017,01,10,07,17,1.00
2017,01,10,07,18,0.90
2017,01,10,07,19,0.90
2017,01,10,07,20,0.90
2017,01,10,07,21,0.90
2017,01,10,07,22,0.90
2017,01,10,07,23,0.90
2017,01,10,07,24,0.90
2017,01,10,07,25,0.90
2017,01,10,07,26,0.90
2017,01,10,07,27,0.90
2017,01,10,07,28,0.90
2017,01,10,07,29,0.90
2017,01,10,07,30,0.90
2017,01,10,07,31,0.90
2017,01,10,07,32,0.90
2017,01,10,07,33,0.90
2017,01,10,07,34,0.90
2017,01,10,07,35,0.90
2017,01,10,07,36,0.90
2017,01,10,07,37,0.90
2017,01,10,07,38,0.90
2017,01,10,07,39,0.90
2017,01,10,07,40,0.90
2017,01,10,07,41,0.90
2017,01,10,07,42,0.90
2017,01,10,07,43,0.90
2017,01,10,07,44,0.90
2017,01,10,07,45,0.90
2017,01,10,07,46,0.90
2017,01,10,07,47,0.90
2017,01,10,07,48,0.90
2017,01,10,07,49,0.90
2017,01,10,07,50,0.90
2017,01,10,07,51,0.90
2017,01,10,07,52,0.90
2017,01,10,07,53,1.00
2017,01,10,07,54,1.00
2017,01,10,07,55,1.00
2017,01,10,07,56,1.00
2017,01,10,07,57,1.00
2017,01,10,07,58,1.00
2017,01,10,07,59,1.00
2017,01,10,08,00,1.00
2017,01,10,08,01,1.00
2017,01,10,08,02,1.00
2017,01,10,08,03,0.90
2017,01,10,08,04,0.90
2017,01,10,08,05,0.90
2017,01,10,08,06,0.90
2017,01,10,08,07,0.90
2017,01,10,08,08,0.90
2017,01,10,08,09,0.90
2017,01,10,08,10,0.90
2017,01,10,08,11,0.90
2017,01,10,08,12,0.90
2017,01,10,08,13,0.90
2017,01,10,08,14,0.90
2017,01,10,08,15,0.90
2017,01,10,08,16,0.90
2017,01,10,08,17,0.90
2017,01,10,08,18,0.90
2017,01,10,08,19,0.90
2017,01,10,08,20,0.90
2017,01,10,08,21,0.80
2017,01,10,08,22,0.80
2017,01,10,08,23,0.80
2017,01,10,08,24,0.80
2017,01,10,08,25,0.80
2017,01,10,08,26,0.80
2017,01,10,08,27,0.80
2017,01,10,08,28,0.80
2017,01,10,08,29,0.80
2017,01,10,08,30,0.80
2017,01,10,08,31,0.80
2017,01,10,08,32,0.80
2017,01,10,08,33,0.80
2017,01,10,08,34,0.80
2017,01,10,08,35,0.80
2017,01,10,08,36,0.70
2017,01,10,08,37,0.80
2017,01,10,08,38,0.80
2017,01,10,08,39,0.80
2017,01,10,08,40,0.80
2017,01,10,08,41,0.80
2017,01,10,08,42,0.80
2017,01,10,08,43,0.80
2017,01,10,08,44,0.80
2017,01,10,08,45,0.80
2017,01,10,08,46,0.80
2017,01,10,08,47,0.80
2017,01,10,08,48,0.80
2017,01,10,08,49,0.80
2017,01,10,08,50,0.80
2017,01,10,08,51,0.80
2017,01,10,08,52,0.70
2017,01,10,08,53,0.70
2017,01,10,08,54,0.70
2017,01,10,08,55,0.70
2017,01,10,08,56,0.70
2017,01,10,08,57,0.70
2017,01,10,08,58,0.70
2017,01,10,08,59,0.70
2017,01,10,09,00,0.70
2017,01,10,09,01,0.70
2017,01,10,09,02,0.70
2017,01,10,09,03,0.70
2017,01,10,09,04,0.70
2017,01,10,09,05,0.70
2017,01,10,09,06,0.70
2017,01,10,09,07,0.70
2017,01,10,09,08,0.70
2017,01,10,09,09,0.70
2017,01,10,09,10,0.70
2017,01,10,09,11,0.70
2017,01,10,09,12,0.70
2017,01,10,09,13,0.70
2017,01,10,09,14,0.70
2017,01,10,09,15,0.70
2017,01,10,09,16,0.70
2017,01,10,09,17,0.70
2017,01,10,09,18,0.70
2017,01,10,09,19,0.70
2017,01,10,09,20,0.70
2017,01,10,09,21,0.70
2017,01,10,09,22,0.70
2017,01,10,09,23,0.70
2017,01,10,09,24,0.70
2017,01,10,09,25,0.70
2017,01,10,09,26,0.70
2017,01,10,09,27,0.70
2017,01,10,09,28,0.70
2017,01,10,09,29,0.70
2017,01,10,09,30,0.70
2017,01,10,09,31,0.70
2017,01,10,09,32,0.70
2017,01,10,09,33,0.70
2017,01,10,09,34,0.70
2017,01,10,09,35,0.70
2017,01,10,09,36,0.70
2017,01,10,09,37,0.70
2017,01,10,09,38,0.70
2017,01,10,09,39,0.70
2017,01,10,09,40,0.70
2017,01,10,09,41,0.70
2017,01,10,09,42,0.70
2017,01,10,09,43,0.70
2017,01,10,09,44,0.70
2017,01,10,09,45,0.70
2017,01,10,09,46,0.70
2017,01,10,09,47,0.70
2017,01,10,09,48,0.70
2017,01,10,09,49,0.70
2017,01,10,09,50,0.70
2017,01,10,09,51,0.80
2017,01,10,09,52,0.80
2017,01,10,09,53,0.80
2017,01,10,09,54,0.80
2017,01,10,09,55,0.80
2017,01,10,09,56,0.80
2017,01,10,09,57,0.80
2017,01,10,09,58,0.80
2017,01,10,09,59,0.80
2017,01,10,10,00,0.80
2017,01,10,10,01,0.80
2017,01,10,10,02,0.80
2017,01,10,10,03,0.80
2017,01,10,10,04,0.80
2017,01,10,10,05,0.80
2017,01,10,10,06,0.80
2017,01,10,10,07,0.80
2017,01,10,10,08,0.80
2017,01,10,10,09,0.80
2017,01,10,10,10,0.80
2017,01,10,10,11,0.80
2017,01,10,10,12,0.80
2017,01,10,10,13,0.80
2017,01,10,10,14,0.80
2017,01,10,10,15,0.80
2017,01,10,10,16,0.80
2017,01,10,10,17,0.80
2017,01,10,10,18,0.80
2017,01,10,10,19,0.80
2017,01,10,10,20,0.80
2017,01,10,10,21,0.80
2017,01,10,10,22,0.80
2017,01,10,10,23,0.80
2017,01,10,10,24,0.80
2017,01,10,10,25,0.90
2017,01,10,10,26,0.90
2017,01,10,10,27,0.90
2017,01,10,10,28,0.90
2017,01,10,10,29,0.90
2017,01,10,10,30,0.90
2017,01,10,10,31,0.90
2017,01,10,10,32,0.90
2017,01,10,10,33,0.90
2017,01,10,10,34,0.90
2017,01,10,10,35,0.90
2017,01,10,10,36,0.80
2017,01,10,10,37,0.80
2017,01,10,10,38,0.80
2017,01,10,10,39,0.80
2017,01,10,10,40,0.80
2017,01,10,10,41,0.80
2017,01,10,10,42,0.80
2017,01,10,10,43,0.80
2017,01,10,10,44,0.90
2017,01,10,10,45,0.90
2017,01,10,10,46,0.90
2017,01,10,10,47,0.90
2017,01,10,10,48,0.90
2017,01,10,10,49,0.90
2017,01,10,10,50,0.90
2017,01,10,10,51,0.90
2017,01,10,10,52,1.00
2017,01,10,10,53,1.00
2017,01,10,10,54,1.00
2017,01,10,10,55,1.00
2017,01,10,10,56,1.00
2017,01,10,10,57,0.90
2017,01,10,10,58,0.90
2017,01,10,10,59,1.00
2017,01,10,11,00,1.00
2017,01,10,11,01,1.00
2017,01,10,11,02,1.00
2017,01,10,11,03,1.00
2017,01,10,11,04,1.00
2017,01,10,11,05,1.00
2017,01,10,11,06,1.10
2017,01,10,11,07,1.10
2017,01,10,11,08,1.10
2017,01,10,11,09,1.10
2017,01,10,11,10,1.10
2017,01,10,11,11,1.20
2017,01,10,11,12,1.20
2017,01,10,11,13,1.20
2017,01,10,11,14,1.10
2017,01,10,11,15,1.20
2017,01,10,11,16,1.10
2017,01,10,11,17,1.10
2017,01,10,11,18,1.10
2017,01,10,11,19,1.10
2017,01,10,11,20,1.20
2017,01,10,11,21,1.20
2017,01,10,11,22,1.20
2017,01,10,11,23,1.20
2017,01,10,11,24,1.20
2017,01,10,11,25,1.20
2017,01,10,11,26,1.20
2017,01,10,11,27,1.20
2017,01,10,11,28,1.20
2017,01,10,11,29,1.30
2017,01,10,11,30,1.30
2017,01,10,11,31,1.30
2017,01,10,11,32,1.30
2017,01,10,11,33,1.30
2017,01,10,11,34,1.30
2017,01,10,11,35,1.30
2017,01,10,11,36,1.40
2017,01,10,11,37,1.40
2017,01,10,11,38,1.40
2017,01,10,11,39,1.40
2017,01,10,11,40,1.50
2017,01,10,11,41,1.50
2017,01,10,11,42,1.50
2017,01,10,11,43,1.50
2017,01,10,11,44,1.50
2017,01,10,11,45,1.50
2017,01,10,11,46,1.50
2017,01,10,11,47,1.50
2017,01,10,11,48,1.50
2017,01,10,11,49,1.50
2017,01,10,11,50,1.50
2017,01,10,11,51,1.50
2017,01,10,11,52,1.50
2017,01,10,11,53,1.50
2017,01,10,11,54,1.50
2017,01,10,11,55,1.50
2017,01,10,11,56,1.50
2017,01,10,11,57,1.50
2017,01,10,11,58,1.50
2017,01,10,11,59,1.50
2017,01,10,12,00,1.50
2017,01,10,12,01,1.50
2017,01,10,12,02,1.50
2017,01,10,12,03,1.50
2017,01,10,12,04,1.40
2017,01,10,12,05,1.40
2017,01,10,12,06,1.40
2017,01,10,12,07,1.40
2017,01,10,12,08,1.40
2017,01,10,12,09,1.40
2017,01,10,12,10,1.40
2017,01,10,12,11,1.40
2017,01,10,12,12,1.40
2017,01,10,12,13,1.40
2017,01,10,12,14,1.40
2017,01,10,12,15,1.30
2017,01,10,12,16,1.30
2017,01,10,12,17,1.30
2017,01,10,12,18,1.30
2017,01,10,12,19,1.30
2017,01,10,12,20,1.30
2017,01,10,12,21,1.30
2017,01,10,12,22,1.30
2017,01,10,12,23,1.30
2017,01,10,12,24,1.30
2017,01,10,12,25,1.30
2017,01,10,12,26,1.30
2017,01,10,12,27,1.30
2017,01,10,12,28,1.30
2017,01,10,12,29,1.30
2017,01,10,12,30,1.30
2017,01,10,12,31,1.30
2017,01,10,12,32,1.30
2017,01,10,12,33,1.30
2017,01,10,12,34,1.30
2017,01,10,12,35,1.30
2017,01,10,12,36,1.30
2017,01,10,12,37,1.30
2017,01,10,12,38,1.30
2017,01,10,12,39,1.30
2017,01,10,12,40,1.30
2017,01,10,12,41,1.30
2017,01,10,12,42,1.30
2017,01,10,12,43,1.40
2017,01,10,12,44,1.40
2017,01,10,12,45,1.30
2017,01,10,12,46,1.30
2017,01,10,12,47,1.30
2017,01,10,12,48,1.30
2017,01,10,12,49,1.30
2017,01,10,12,50,1.40
2017,01,10,12,51,1.40
2017,01,10,12,52,1.40
2017,01,10,12,53,1.40
2017,01,10,12,54,1.40
2017,01,10,12,55,1.40
2017,01,10,12,56,1.40
2017,01,10,12,57,1.40
2017,01,10,12,58,1.50
2017,01,10,12,59,1.50
2017,01,10,13,00,1.50
2017,01,10,13,01,1.50
2017,01,10,13,02,1.50
2017,01,10,13,03,1.60
2017,01,10,13,04,1.60
2017,01,10,13,05,1.60
2017,01,10,13,06,1.70
2017,01,10,13,07,1.70
2017,01,10,13,08,1.70
2017,01,10,13,09,1.70
2017,01,10,13,10,1.70
2017,01,10,13,11,1.70
2017,01,10,13,12,1.60
2017,01,10,13,13,1.60
2017,01,10,13,14,1.60
2017,01,10,13,15,1.60
2017,01,10,13,16,1.60
2017,01,10,13,17,1.60
2017,01,10,13,18,1.60
2017,01,10,13,19,1.60
2017,01,10,13,20,1.60
2017,01,10,13,21,1.60
2017,01,10,13,22,1.70
2017,01,10,13,23,1.70
2017,01,10,13,24,1.70
2017,01,10,13,25,1.80
2017,01,10,13,26,1.80
2017,01,10,13,27,1.80
2017,01,10,13,28,1.80
2017,01,10,13,29,1.90
2017,01,10,13,30,1.90
2017,01,10,13,31,2.00
2017,01,10,13,32,2.00
2017,01,10,13,33,2.00
2017,01,10,13,34,2.00
2017,01,10,13,35,2.10
2017,01,10,13,36,2.10
2017,01,10,13,37,2.10
2017,01,10,13,38,2.10
2017,01,10,13,39,2.20
2017,01,10,13,40,2.20
2017,01,10,13,41,2.20
2017,01,10,13,42,2.20
2017,01,10,13,43,2.20
2017,01,10,13,44,2.20
2017,01,10,13,45,2.20
2017,01,10,13,46,2.20
2017,01,10,13,47,2.20
2017,01,10,13,48,2.20
2017,01,10,13,49,2.20
2017,01,10,13,50,2.20
2017,01,10,13,51,2.20
2017,01,10,13,52,2.20
2017,01,10,13,53,2.10
2017,01,10,13,54,2.10
2017,01,10,13,55,2.10
2017,01,10,13,56,2.10
2017,01,10,13,57,2.10
2017,01,10,13,58,2.10
2017,01,10,13,59,2.10
2017,01,10,14,00,2.10
2017,01,10,14,01,2.10
2017,01,10,14,02,2.10
2017,01,10,14,03,2.10
2017,01,10,14,04,2.10
2017,01,10,14,05,2.10
2017,01,10,14,06,2.10
2017,01,10,14,07,2.10
2017,01,10,14,08,2.10
2017,01,10,14,09,2.10
2017,01,10,14,10,2.10
2017,01,10,14,11,2.10
2017,01,10,14,12,2.10
2017,01,10,14,13,2.20
2017,01,10,14,14,2.20
2017,01,10,14,15,2.20
2017,01,10,14,16,2.20
2017,01,10,14,17,2.20
2017,01,10,14,18,2.30
2017,01,10,14,19,2.30
2017,01,10,14,20,2.30
2017,01,10,14,21,2.30
2017,01,10,14,22,2.30
2017,01,10,14,23,2.30
2017,01,10,14,24,2.30
2017,01,10,14,25,2.40
2017,01,10,14,26,2.40
2017,01,10,14,27,2.40
2017,01,10,14,28,2.40
2017,01,10,14,29,2.40
2017,01,10,14,30,2.30
2017,01,10,14,31,2.30
2017,01,10,14,32,2.30
2017,01,10,14,33,2.40
2017,01,10,14,34,2.40
2017,01,10,14,35,2.40
2017,01,10,14,36,2.30
2017,01,10,14,37,2.30
2017,01,10,14,38,2.30
2017,01,10,14,39,2.30
2017,01,10,14,40,2.30
2017,01,10,14,41,2.30
2017,01,10,14,42,2.30
2017,01,10,14,43,2.30
2017,01,10,14,44,2.40
2017,01,10,14,45,2.40
2017,01,10,14,46,2.40
2017,01,10,14,47,2.40
2017,01,10,14,48,2.40
2017,01,10,14,49,2.50
2017,01,10,14,50,2.50
2017,01,10,14,51,2.50
2017,01,10,14,52,2.60
2017,01,10,14,53,2.60
2017,01,10,14,54,2.60
2017,01,10,14,55,2.60
2017,01,10,14,56,2.60
2017,01,10,14,57,2.70
2017,01,10,14,58,2.70
2017,01,10,14,59,2.70
2017,01,10,15,00,2.70
2017,01,10,15,01,2.70
2017,01,10,15,02,2.70
2017,01,10,15,03,2.70
2017,01,10,15,04,2.70
2017,01,10,15,05,2.70
2017,01,10,15,06,2.80
2017,01,10,15,07,2.80
2017,01,10,15,08,2.80
2017,01,10,15,09,2.80
2017,01,10,15,10,2.80
2017,01,10,15,11,2.80
2017,01,10,15,12,2.80
2017,01,10,15,13,2.80
2017,01,10,15,14,2.80
2017,01,10,15,15,2.80
2017,01,10,15,16,2.80
2017,01,10,15,17,2.80
2017,01,10,15,18,2.80
2017,01,10,15,19,2.80
2017,01,10,15,20,2.80
2017,01,10,15,21,2.80
2017,01,10,15,22,2.80
2017,01,10,15,23,2.80
2017,01,10,15,24,2.80
2017,01,10,15,25,2.80
2017,01,10,15,26,2.80
2017,01,10,15,27,2.70
2017,01,10,15,28,2.70
2017,01,10,15,29,2.70
2017,01,10,15,30,2.70
2017,01,10,15,31,2.70
2017,01,10,15,32,2.70
2017,01,10,15,33,2.70
2017,01,10,15,34,2.70
2017,01,10,15,35,2.70
2017,01,10,15,36,2.70
2017,01,10,15,37,2.70
2017,01,10,15,38,2.70
2017,01,10,15,39,2.70
2017,01,10,15,40,2.70
2017,01,10,15,41,2.70
2017,01,10,15,42,2.70
2017,01,10,15,43,2.70
2017,01,10,15,44,2.70
2017,01,10,15,45,2.70
2017,01,10,15,46,2.70
2017,01,10,15,47,2.70
2017,01,10,15,48,2.70
2017,01,10,15,49,2.70
2017,01,10,15,50,2.70
2017,01,10,15,51,2.70
2017,01,10,15,52,2.70
2017,01,10,15,53,2.70
2017,01,10,15,54,2.70
2017,01,10,15,55,2.70
2017,01,10,15,56,2.70
2017,01,10,15,57,2.70
2017,01,10,15,58,2.70
2017,01,10,15,59,2.60
2017,01,10,16,00,2.60
2017,01,10,16,01,2.60
2017,01,10,16,02,2.60
2017,01,10,16,03,2.60
2017,01,10,16,04,2.50
2017,01,10,16,05,2.50
2017,01,10,16,06,2.50
2017,01,10,16,07,2.50
2017,01,10,16,08,2.40
2017,01,10,16,09,2.40
2017,01,10,16,10,2.40
2017,01,10,16,11,2.40
2017,01,10,16,12,2.40
2017,01,10,16,13,2.40
2017,01,10,16,14,2.30
2017,01,10,16,15,2.30
2017,01,10,16,16,2.30
2017,01,10,16,17,2.30
2017,01,10,16,18,2.30
2017,01,10,16,19,2.30
2017,01,10,16,20,2.20
2017,01,10,16,21,2.20
2017,01,10,16,22,2.20
2017,01,10,16,23,2.20
2017,01,10,16,24,2.20
2017,01,10,16,25,2.20
2017,01,10,16,26,2.20
2017,01,10,16,27,2.10
2017,01,10,16,28,2.10
2017,01,10,16,29,2.10
2017,01,10,16,30,2.10
2017,01,10,16,31,2.10
2017,01,10,16,32,2.10
2017,01,10,16,33,2.10
2017,01,10,16,34,2.00
2017,01,10,16,35,2.00
2017,01,10,16,36,2.00
2017,01,10,16,37,2.00
2017,01,10,16,38,2.00
2017,01,10,16,39,1.90
2017,01,10,16,40,1.90
2017,01,10,16,41,1.90
2017,01,10,16,42,1.90
2017,01,10,16,43,1.90
2017,01,10,16,44,1.90
2017,01,10,16,45,1.90
2017,01,10,16,46,1.90
2017,01,10,16,47,1.80
2017,01,10,16,48,1.80
2017,01,10,16,49,1.80
2017,01,10,16,50,1.80
2017,01,10,16,51,1.80
2017,01,10,16,52,1.70
2017,01,10,16,53,1.70
2017,01,10,16,54,1.60
2017,01,10,16,55,1.50
2017,01,10,16,56,1.50
2017,01,10,16,57,1.40
2017,01,10,16,58,1.30
2017,01,10,16,59,1.30
2017,01,10,17,00,1.20
2017,01,10,17,01,1.20
2017,01,10,17,02,1.10
2017,01,10,17,03,1.10
2017,01,10,17,04,1.00
2017,01,10,17,05,1.00
2017,01,10,17,06,0.90
2017,01,10,17,07,0.90
2017,01,10,17,08,0.80
2017,01,10,17,09,0.80
2017,01,10,17,10,0.70
2017,01,10,17,11,0.70
2017,01,10,17,12,0.70
2017,01,10,17,13,0.60
2017,01,10,17,14,0.60
2017,01,10,17,15,0.50
2017,01,10,17,16,0.50
2017,01,10,17,17,0.40
2017,01,10,17,18,0.40
2017,01,10,17,19,0.30
2017,01,10,17,20,0.30
2017,01,10,17,21,0.20
2017,01,10,17,22,0.20
2017,01,10,17,23,0.20
2017,01,10,17,24,0.20
2017,01,10,17,25,0.20
2017,01,10,17,26,0.30
2017,01,10,17,27,0.30
2017,01,10,17,28,0.30
2017,01,10,17,29,0.30
2017,01,10,17,30,0.20
2017,01,10,17,31,0.20
2017,01,10,17,32,0.20
2017,01,10,17,33,0.20
2017,01,10,17,34,0.20
2017,01,10,17,35,0.30
2017,01,10,17,36,0.30
2017,01,10,17,37,0.30
2017,01,10,17,38,0.30
2017,01,10,17,39,0.20
2017,01,10,17,40,0.20
2017,01,10,17,41,0.20
2017,01,10,17,42,0.20
2017,01,10,17,43,0.20
2017,01,10,17,44,0.20
2017,01,10,17,45,0.10
2017,01,10,17,46,0.10
2017,01,10,17,47,0.10
2017,01,10,17,48,0.10
2017,01,10,17,49,0.10
2017,01,10,17,50,0.10
2017,01,10,17,51,0.00
2017,01,10,17,52,0.00
2017,01,10,17,53,0.00
2017,01,10,17,54,0.00
2017,01,10,17,55,0.00
2017,01,10,17,56,-0.10
2017,01,10,17,57,-0.10
2017,01,10,17,58,-0.10
2017,01,10,17,59,-0.10
2017,01,10,18,00,-0.20
2017,01,10,18,01,-0.20
2017,01,10,18,02,-0.20
2017,01,10,18,03,-0.20
2017,01,10,18,04,-0.30
2017,01,10,18,05,-0.30
2017,01,10,18,06,-0.30